This is the latest recevied weather packets stored in our database for station/object 4S6DRJ-13. If no packets are shown the sender has not sent any weather packets the latest 1 day(s).
| Time | Temp. | Humidity | Pressure | Rain* | Wind** | Luminosity | Snow |
|---|---|---|---|---|---|---|---|
| 1778134497 | 32.78° C | 67% | 1004.7 hPa | 0 mm | 1.79 m/s, 192° | 1119 W/m² | - |
| 1778134314 | 33.33° C | 65% | 1004.6 hPa | 0 mm | 1.79 m/s, 20° | 499 W/m² | - |
| 1778134254 | 33.89° C | 64% | 1004.6 hPa | 0 mm | 0.89 m/s, 281° | 1109 W/m² | - |
| 1778134070 | 33.89° C | 61% | 1004.6 hPa | 0 mm | 1.79 m/s, 265° | 1111 W/m² | - |
| 1778134009 | 33.89° C | 60% | 1004.7 hPa | 0 mm | 0.89 m/s, 318° | 1123 W/m² | - |
| 1778133765 | 33.89° C | 61% | 1004.6 hPa | 0 mm | 0.89 m/s, 221° | 1125 W/m² | - |
| 1778133582 | 33.89° C | 62% | 1004.8 hPa | 0 mm | 1.34 m/s, 267° | 1123 W/m² | - |
| 1778133522 | 33.89° C | 61% | 1004.8 hPa | 0 mm | 0.89 m/s, 208° | 462 W/m² | - |
| 1778133460 | 33.89° C | 61% | 1004.8 hPa | 0 mm | 1.34 m/s, 299° | 710 W/m² | - |
| 1778133399 | 33.89° C | 60% | 1004.8 hPa | 0 mm | 0 m/s | 1120 W/m² | - |
| 1778133338 | 33.89° C | 60% | 1004.9 hPa | 0 mm | 2.24 m/s, 258° | 1118 W/m² | - |
| 1778133277 | 33.89° C | 60% | 1004.6 hPa | 0 mm | 1.34 m/s, 305° | 1117 W/m² | - |
| 1778133217 | 33.89° C | 62% | 1004.8 hPa | 0 mm | 0.89 m/s, 338° | 1119 W/m² | - |
| 1778133155 | 33.33° C | 62% | 1004.6 hPa | 0 mm | 0 m/s | 1116 W/m² | - |
| 1778133094 | 33.33° C | 62% | 1004.8 hPa | 0 mm | 0 m/s | 1115 W/m² | - |
| 1778132972 | 33.33° C | 63% | 1004.9 hPa | 0 mm | 0.45 m/s, 29° | 1114 W/m² | - |
| 1778132911 | 32.78° C | 63% | 1004.8 hPa | 0 mm | 0 m/s | 1111 W/m² | - |
| 1778132850 | 32.78° C | 64% | 1004.7 hPa | 0 mm | 0.45 m/s, 223° | 1114 W/m² | - |
| 1778132789 | 32.78° C | 64% | 1004.8 hPa | 0 mm | 0.45 m/s, 221° | 1113 W/m² | - |
| 1778132728 | 32.78° C | 64% | 1004.9 hPa | 0 mm | 0.89 m/s, 230° | 1115 W/m² | - |
| 1778132606 | 32.78° C | 65% | 1004.9 hPa | 0 mm | 0.89 m/s, 200° | 1116 W/m² | - |
| 1778132545 | 32.78° C | 64% | 1004.8 hPa | 0 mm | 1.79 m/s, 235° | 1115 W/m² | - |
| 1778132484 | 32.78° C | 65% | 1005 hPa | 0 mm | 1.79 m/s, 226° | 1116 W/m² | - |
| 1778132301 | 32.78° C | 65% | 1005 hPa | 0 mm | 0.45 m/s, 319° | 240 W/m² | - |
| 1778132240 | 32.78° C | 65% | 1004.8 hPa | 0 mm | 0.45 m/s, 264° | 255 W/m² | - |
* Rain latest hour (hover to see other rain measurements)
** Current wind speed in m/s (hover to see current wind gust speed)